When you browse on this site, cookies collect data to enhance your experience and personalize the content and advertising you see.
Visit our Privacy Policy to learn more. By continuing to use the site, you agree to this use of cookies and data.
  • en Suisse
  • Liste des pays
  • À 7 jours
  • Température de l'eau
  • Carte satellitaire
  • Carte météo
  • Widgets météo
  • user-avatar
    Se connecter

    Météo par heure à Tovsti Rohy

    Ce jour, 19 Février, Mardi

    Heure Température Précipitation Vent Pression Humidité
    00:00 -1°C° 0 mm 1 m/s 748 mmHg 82%
    01:00 -1°C° 0 mm 1 m/s 748 mmHg 82%
    02:00 -4°C° 0 mm 1 m/s 748 mmHg 83%
    03:00 -4°C° 0 mm 1 m/s 747 mmHg 83%
    04:00 -4°C° 0 mm 1 m/s 747 mmHg 83%
    05:00 -4°C° 0 mm 1 m/s 747 mmHg 83%
    06:00 -6°C° 0 mm 2 m/s 747 mmHg 84%
    07:00 -6°C° 0 mm 2 m/s 747 mmHg 84%
    08:00 -6°C° 0 mm 2 m/s 748 mmHg 86%
    09:00 -5°C° 0 mm 3 m/s 748 mmHg 85%
    10:00 -4°C° 0 mm 3 m/s 747 mmHg 84%
    11:00 -1°C° 0 mm 3 m/s 747 mmHg 83%
    12:00 -1°C° 0 mm 3 m/s 747 mmHg 84%
    13:00 0°C° 0 mm 3 m/s 747 mmHg 85%
    14:00 0°C° 0 mm 3 m/s 746 mmHg 87%
    15:00 0°C° 0 mm 3 m/s 746 mmHg 83%
    16:00 0°C° 0 mm 3 m/s 745 mmHg 80%
    17:00 -2°C° 0 mm 4 m/s 745 mmHg 77%
    18:00 -2°C° 0 mm 4 m/s 744 mmHg 76%
    19:00 -2°C° 0 mm 4 m/s 744 mmHg 76%
    20:00 -2°C° 0 mm 5 m/s 744 mmHg 76%
    21:00 -2°C° 0 mm 5 m/s 743 mmHg 79%
    22:00 -2°C° 0 mm 5 m/s 743 mmHg 82%
    23:00 -3°C° 0 mm 6 m/s 743 mmHg 85%

    Demain, 20 Février, Mercredi

    Heure Température Précipitation Vent Pression Humidité
    00:00 -3°C° 0 mm 6 m/s 742 mmHg 87%
    01:00 -3°C° 0 mm 6 m/s 742 mmHg 90%
    02:00 -3°C° 0 mm 6 m/s 742 mmHg 92%
    03:00 -2°C° 0 mm 5 m/s 741 mmHg 94%
    04:00 -1°C° 0 mm 5 m/s 741 mmHg 96%
    05:00 -1°C° 0 mm 5 m/s 740 mmHg 98%
    06:00 -1°C° 0 mm 5 m/s 740 mmHg 98%
    07:00 -1°C° 0 mm 5 m/s 740 mmHg 98%
    08:00 -1°C° 0 mm 4 m/s 739 mmHg 98%
    09:00 0°C° 0 mm 4 m/s 739 mmHg 98%
    10:00 0°C° 0 mm 4 m/s 739 mmHg 99%
    11:00 0°C° 0 mm 4 m/s 739 mmHg 99%
    12:00 +1°C° 0.2 mm 4 m/s 739 mmHg 98%
    13:00 +1°C° 0.2 mm 4 m/s 739 mmHg 97%
    14:00 +3°C° 0.2 mm 4 m/s 739 mmHg 97%
    15:00 +1°C° 0.1 mm 4 m/s 739 mmHg 95%
    16:00 +1°C° 0.1 mm 4 m/s 739 mmHg 94%
    17:00 +1°C° 0.1 mm 4 m/s 739 mmHg 93%
    18:00 0°C° 0 mm 4 m/s 740 mmHg 92%
    19:00 0°C° 0 mm 4 m/s 740 mmHg 91%
    20:00 0°C° 0 mm 4 m/s 740 mmHg 90%
    21:00 0°C° 0 mm 4 m/s 740 mmHg 89%
    22:00 -1°C° 0 mm 4 m/s 740 mmHg 88%
    23:00 -1°C° 0 mm 4 m/s 740 mmHg 87%

    Après-demain, 21 Février, Jeudi

    Heure Température Précipitation Vent Pression Humidité
    00:00 -1°C° 0 mm 4 m/s 740 mmHg 87%
    01:00 -1°C° 0 mm 5 m/s 740 mmHg 86%
    02:00 -1°C° 0 mm 5 m/s 740 mmHg 86%
    03:00 -2°C° 0 mm 6 m/s 740 mmHg 85%
    04:00 -2°C° 0 mm 6 m/s 740 mmHg 85%
    05:00 -2°C° 0 mm 6 m/s 740 mmHg 85%
    06:00 -2°C° 0 mm 6 m/s 740 mmHg 85%
    07:00 -2°C° 0 mm 6 m/s 740 mmHg 86%
    08:00 -2°C° 0 mm 6 m/s 740 mmHg 86%
    09:00 -2°C° 0 mm 7 m/s 740 mmHg 80%
    10:00 -2°C° 0 mm 7 m/s 741 mmHg 73%
    11:00 -1°C° 0 mm 8 m/s 741 mmHg 67%
    12:00 -1°C° 0 mm 8 m/s 741 mmHg 64%
    13:00 -1°C° 0 mm 8 m/s 741 mmHg 61%
    14:00 -1°C° 0 mm 8 m/s 741 mmHg 58%
    15:00 -1°C° 0 mm 6 m/s 741 mmHg 61%
    16:00 -1°C° 0 mm 5 m/s 741 mmHg 63%
    17:00 -1°C° 0 mm 4 m/s 741 mmHg 66%
    18:00 -2°C° 0 mm 4 m/s 741 mmHg 68%
    19:00 -1°C° 0 mm 3 m/s 741 mmHg 69%
    20:00 -2°C° 0 mm 3 m/s 741 mmHg 70%
    21:00 -2°C° 0 mm 3 m/s 742 mmHg 71%
    22:00 -2°C° 0 mm 2 m/s 742 mmHg 71%
    23:00 -2°C° 0 mm 2 m/s 742 mmHg 72%

    22 Février, Vendredi

    Heure Température Précipitation Vent Pression Humidité
    00:00 -3°C° 0 mm 2 m/s 742 mmHg 71%
    01:00 -3°C° 0 mm 2 m/s 742 mmHg 70%
    02:00 -1°C° 0 mm 1 m/s 742 mmHg 69%
    03:00 -3°C° 0 mm 2 m/s 742 mmHg 68%
    04:00 -3°C° 0 mm 2 m/s 742 mmHg 68%
    05:00 -4°C° 0 mm 3 m/s 741 mmHg 67%
    06:00 -5°C° 0 mm 3 m/s 742 mmHg 67%
    07:00 -5°C° 0 mm 4 m/s 742 mmHg 68%
    08:00 -5°C° 0 mm 4 m/s 743 mmHg 68%
    09:00 -7°C° 0.1 mm 5 m/s 743 mmHg 68%
    10:00 -8°C° 0.1 mm 6 m/s 744 mmHg 68%
    11:00 -8°C° 0.1 mm 7 m/s 744 mmHg 68%
    12:00 -9°C° 0 mm 7 m/s 744 mmHg 65%
    13:00 -9°C° 0 mm 7 m/s 745 mmHg 61%
    14:00 -10°C° 0 mm 8 m/s 745 mmHg 58%
    15:00 -11°C° 0 mm 8 m/s 746 mmHg 57%
    16:00 -11°C° 0 mm 8 m/s 746 mmHg 57%
    17:00 -11°C° 0 mm 8 m/s 747 mmHg 56%
    18:00 -11°C° 0 mm 8 m/s 747 mmHg 56%
    19:00 -11°C° 0 mm 8 m/s 748 mmHg 57%
    20:00 -12°C° 0 mm 8 m/s 748 mmHg 57%
    21:00 -12°C° 0 mm 8 m/s 748 mmHg 56%
    22:00 -12°C° 0 mm 7 m/s 749 mmHg 56%
    23:00 -12°C° 0 mm 7 m/s 749 mmHg 55%

    23 Février, Samedi

    Heure Température Précipitation Vent Pression Humidité
    00:00 -12°C° 0 mm 7 m/s 749 mmHg 56%
    01:00 -11°C° 0 mm 6 m/s 749 mmHg 56%
    02:00 -11°C° 0 mm 6 m/s 749 mmHg 56%
    03:00 -11°C° 0 mm 6 m/s 749 mmHg 57%
    04:00 -11°C° 0 mm 6 m/s 749 mmHg 58%
    05:00 -11°C° 0 mm 6 m/s 749 mmHg 59%
    06:00 -12°C° 0 mm 6 m/s 749 mmHg 61%
    07:00 -12°C° 0 mm 6 m/s 750 mmHg 62%
    08:00 -12°C° 0 mm 6 m/s 750 mmHg 63%
    09:00 -12°C° 0 mm 6 m/s 751 mmHg 61%
    10:00 -11°C° 0 mm 6 m/s 751 mmHg 59%
    11:00 -11°C° 0 mm 6 m/s 751 mmHg 57%
    12:00 -11°C° 0 mm 6 m/s 751 mmHg 55%
    13:00 -10°C° 0 mm 6 m/s 751 mmHg 54%
    14:00 -10°C° 0 mm 6 m/s 751 mmHg 53%
    15:00 -10°C° 0 mm 6 m/s 751 mmHg 54%
    16:00 -10°C° 0 mm 6 m/s 751 mmHg 55%
    17:00 -10°C° 0 mm 5 m/s 751 mmHg 55%
    18:00 -10°C° 0 mm 5 m/s 751 mmHg 58%
    19:00 -10°C° 0 mm 5 m/s 751 mmHg 60%
    20:00 -11°C° 0 mm 5 m/s 751 mmHg 63%
    21:00 -11°C° 0 mm 5 m/s 751 mmHg 65%
    22:00 -11°C° 0 mm 5 m/s 751 mmHg 67%
    23:00 -11°C° 0 mm 5 m/s 751 mmHg 69%

    24 Février, Dimanche

    Heure Température Précipitation Vent Pression Humidité
    00:00 -11°C° 0 mm 5 m/s 751 mmHg 70%
    01:00 -12°C° 0 mm 5 m/s 751 mmHg 71%
    02:00 -12°C° 0 mm 5 m/s 751 mmHg 72%
    03:00 -12°C° 0 mm 5 m/s 751 mmHg 73%
    04:00 -12°C° 0 mm 5 m/s 751 mmHg 73%
    05:00 -12°C° 0 mm 5 m/s 752 mmHg 74%
    06:00 -12°C° 0 mm 5 m/s 752 mmHg 75%
    07:00 -12°C° 0 mm 5 m/s 752 mmHg 75%
    08:00 -12°C° 0 mm 5 m/s 752 mmHg 75%
    09:00 -12°C° 0 mm 5 m/s 753 mmHg 73%
    10:00 -11°C° 0 mm 5 m/s 753 mmHg 70%
    11:00 -11°C° 0 mm 5 m/s 753 mmHg 68%
    12:00 -10°C° 0 mm 5 m/s 753 mmHg 67%
    13:00 -10°C° 0 mm 5 m/s 753 mmHg 67%
    14:00 -10°C° 0 mm 5 m/s 753 mmHg 66%
    15:00 -10°C° 0 mm 5 m/s 753 mmHg 67%
    16:00 -10°C° 0 mm 5 m/s 753 mmHg 68%
    17:00 -10°C° 0 mm 5 m/s 753 mmHg 68%
    18:00 -11°C° 0 mm 5 m/s 753 mmHg 70%
    19:00 -11°C° 0 mm 5 m/s 753 mmHg 71%
    20:00 -11°C° 0 mm 5 m/s 754 mmHg 73%
    21:00 -12°C° 0 mm 5 m/s 754 mmHg 74%
    22:00 -11°C° 0 mm 4 m/s 754 mmHg 75%
    23:00 -11°C° 0 mm 4 m/s 754 mmHg 77%
    Voir plus